www.weatherandclimate.eu
Time
(UTC), date
12 17.06
15 17.06
18 17.06
21 17.06
00 18.06
03 18.06
06 18.06
09 18.06
12 18.06
15 18.06
18 18.06
21 18.06
00 19.06
03 19.06
06 19.06
09 19.06
12 19.06
15 19.06
18 19.06
21 19.06
00 20.06
03 20.06
06 20.06
09 20.06
12 20.06
15 20.06
18 20.06
21 20.06
00 21.06
03 21.06
06 21.06
09 21.06
12 21.06
15 21.06
18 21.06
21 21.06
00 22.06
03 22.06
06 22.06
09 22.06
12 22.06
15 22.06
18 22.06
21 22.06
00 23.06
03 23.06
06 23.06
09 23.06
12 23.06
15 23.06
18 23.06
21 23.06
00 24.06
03 24.06
06 24.06
09 24.06
Wind
(dir.,m/s)
Visibility Phenomena Clouds Т
(С)
Тd
(С)
f
(%)
Тe
(С)
Тes
(С)
Comfort P
(hPa)
Po
hPa)
Тmin
(С)
Tmax
(С)
R
(mm)
R24
(mm)
S
(sm)
SE 2 10 km 8/0
[Ac trans Ci fib]
+25.0 +11.7 43 +26 +37 hot 1020.1 983.4
E 2 10 km 8/4 1000 м
[Cu med, cong Ac trans]
+25.0 +14.0 50 +27 +29 hot 1019.3 982.7
NE 1 10 km 4/0
[Ci fib]
+23.9 +13.2 51 +26 +26 hot 1019.8 983.0 +26.3
0 10 km ясно +15.9 +14.5 91 +16 +16 warm 1021.3 983.4
NE 1 10 km ясно +18.2 +13.5 74 +20 +20 warm 1021.0 983.4
0 10 km ясно +14.0 +13.2 95 +14 +14 warm 1021.4 983.3
E 1 10 km ясно +23.3 +15.1 60 +27 +35 stuffily 1020.3 983.3 +13.5
E 2 10 km 6/6 1350 м
[Cu med, cong]
+25.1 +14.6 52 +28 +34 hot 1019.8 983.1
E 3 10 km 6/6 1200 м
[Cu med, cong]
+26.4 +13.7 46 +29 +34 hot 1018.9 982.4
E 2 10 km 4/4 1000 м
[Cu hum]
+27.6 +12.5 39 +29 +33 hot 1017.9 981.5
E 2 10 km 4/0
[Ac trans]
+25.0 +13.6 49 +27 +27 hot 1018.2 981.6 +28.1
NE 1 10 km 3/0
[Ci fib]
+19.4 +14.2 72 +22 +22 comfort 1019.1 981.7
0 10 km 3/0
[Ci fib]
+18.7 +13.6 72 +19 +19 warm 1019.0 981.6
0 10 km 3/0
[Ci fib]
+16.1 +15.1 94 +16 +16 warm 1019.5 981.7
E 3 10 km ясно +22.9 +16.9 69 +28 +33 stuffily 1018.4 981.5 +15.0
E 4 10 km 6/6 1110 м
[Cu hum]
+24.5 +15.6 58 +28 +32 stuffily 1017.6 981.0
E 4 10 km 8/8 1380 м
[Cb calv]
+26.9 +13.5 44 +29 +31 hot 1016.2 979.9
N 1 10 km drythunderstorm 9/5 1200 м
[Cb calv Ac trans]
+17.7 +16.7 94 +19 +21 warm 1017.5 980.1
E 1 10 km {thunderstorm} 6/0
[Ac trans]
+19.5 +16.7 84 +23 +23 comfort 1016.9 979.7 +27.3 7
0 10 km 4/0
[Ci fib]
+17.6 +16.4 93 +18 +18 warm 1017.7 980.2
0 3200 m mist ясно +14.8 +14.1 96 +14 +14 warm 1016.9 979.0
0 10 km 6/0
[Ci fib]
+15.2 +14.7 97 +15 +15 warm 1016.9 979.1
NE 1 10 km 3/0
[Ci fib]
+22.6 +17.8 74 +28 +35 stuffily 1014.9 978.2 +13.6
E 2 10 km 6/6 1300 м
[Cu med, cong]
+23.9 +16.6 64 +27 +34 hot 1014.9 978.3
E 3 10 km 8/8 840 м
[Cb calv]
+25.2 +18.7 67 +30 +33 stuffily 1013.4 977.0
NE 3 10 km 4/0
[Ac trans]
+27.1 +18.1 58 +32 +36 very stuffily 1011.4 975.4
S 2 10 km {thunderstorm} 6/3 1000 м
[Cb calv Ac trans]
+21.4 +17.7 79 +26 +26 stuffily 1012.1 975.3 +27.9
0 10 km 6/0
[Ci fib]
+18.4 +15.9 85 +19 +19 warm 1012.9 975.6
0 7000 m mist 3/0
[Ci fib]
+15.2 +14.5 96 +15 +15 warm 1013.3 975.6
E 1 9000 m mist ясно +15.0 +14.7 98 +15 +16 seasonable 1011.8 974.2
S 2 10 km 3/0
[Ac trans]
+22.2 +17.0 72 +27 +32 stuffily 1011.3 974.6 +13.9
E 2 10 km 6/6 1080 м
[Cu med, cong]
+23.7 +15.6 60 +27 +33 hot 1010.8 974.3
SE 4 10 km 8/8 1200 м
[Cu med, cong]
+25.1 +17.8 64 +29 +31 stuffily 1010.0 973.7
SE 5 10 km 6/6 1200 м
[Cu hum]
+26.5 +18.2 60 +31 +32 stuffily 1009.2 973.1
SE 2 10 km 3/0
[Ac trans]
+23.4 +18.4 74 +30 +30 very stuffily 1009.8 973.3 +26.5
SE 2 10 km 3/0
[Ci fib]
+20.3 +16.5 79 +24 +24 comfort 1010.8 973.8
SE 2 10 km ясно +18.4 +17.1 92 +20 +20 warm 1010.4 973.3
SE 1 10 km ясно +17.4 +16.5 94 +18 +19 warm 1010.7 973.5
SE 3 10 km ясно +22.9 +18.8 78 +29 +34 very stuffily 1011.1 974.4 +17.1
SE 3 10 km 3/3 1000 м
[Cu hum]
+27.5 +18.4 58 +32 +42 very stuffily 1010.8 974.8
S 3 10 km 4/4 1000 м
[Cu hum]
+29.3 +19.0 54 +35 +43 very stuffily 1010.2 974.5
S 3 10 km 3/0
[Ci fib]
+29.7 +17.4 48 +34 +38 very stuffily 1009.6 973.9
SE 2 10 km 4/4 1000 м
[Cu hum]
+26.5 +19.0 63 +32 +32 very stuffily 1010.9 974.8 +30.2
E 1 10 km 3/0
[Ci fib]
+20.4 +18.0 86 +25 +25 comfort 1013.2 976.3
0 10 km 3/0
[Ci fib]
+18.5 +17.4 93 +19 +19 warm 1013.3 976.1
0 10 km 3/0
[Ci fib]
+17.2 +16.4 95 +17 +17 warm 1013.2 975.8
E 1 10 km 4/0
[Ci fib]
+26.0 +18.7 64 +31 +38 very stuffily 1014.3 978.1 +17.2
S 2 10 km 6/6 1080 м
[Cu hum]
+29.2 +19.4 56 +35 +42 very stuffily 1014.6 978.7
S 2 10 km 6/6 1300 м
[Cu hum]
+30.6 +19.5 52 +37 +43 very stuffily 1014.3 978.5
S 1 10 km 5/5 1440 м
[Cu hum]
+31.0 +18.5 47 +36 +39 very stuffily 1014.2 978.4
0 10 km 8/0
[Ci fib]
+28.0 +20.6 64 +35 +35 very stuffily 1015.6 979.5 +31.9
0 10 km 6/0
[Ci fib]
+22.7 +20.4 87 +29 +29 very stuffily 1016.8 980.0
0 8000 m mist 4/0
[Ci fib]
+20.5 +19.9 96 +24 +24 comfort 1017.1 980.0
0 1600 m mist 6/0
[Ci fib]
+18.9 +18.6 98 +20 +21 warm 1017.6 980.3
SE 2 10 km 3/0
[Ci fib]
+27.1 +20.8 68 +34 +40 very stuffily 1015.8 979.6 +18.2
S 3 10 km 3/0
[Ci fib]
+30.6 +19.5 52 +37 +49 very stuffily 1015.7 979.9
Weather station location Львов (Lviv region, Ukraine): latitude 49.82 longitude 23.95 Height above sea level 323 m.
The archive shows weather in в Львове for the last week. For the whole month and for the previous months, starting from January 2011, you can obtain archived data by selecting the date range of interest from the drop-down list and clicking the "Find!".
*Decide who are you:
Attention! The time in the tables is UTC. To get the local time, you must add an amendment that is equal to 2 h.
See also the weather archive in nearby cities and at nearby weather stations:
Partners of our site:
Column explanations:
  • Wind - indicated wind speed in m/s - average for 10 minutes, gusts in time and between periods (in brackets) and the direction from which the wind blows: N - North, NE - North-East, E - East, SE - South-East , S - South, SW - South-West, W - West, NW - North-West.
  • Visibility - horizontal visibility range in meters or kilometers. When visibility is from 1 to 10 km in the absence of precipitation, haze is usually observed, and when visibility is reduced to 1 km or less, fog is observed. In dry weather, visibility may be reduced by smoke, dust, or haze.
  • Phenomena - atmospheric phenomena observed during the period or in the last hour before the period are indicated; curly brackets indicate phenomena observed between periods (1-3 hours before the period); square brackets indicate hail or ice deposits with their diameter in mm.
  • Clouds - are through slash total and lower clouds in points, and the height of the lower border of the cloud in meters; square brackets contain cloud forms: Ci - Cirrus, Cs - Cirrostratus, Cc - Cirrocumulus, Ac - Altocumulus, As - Altostratus, Sc - Stratocumulus, Ns - Nimbostratus, Cu - Cumulus, Cb - Cumulonimbus. For more information about cloud classification, see the cloud Atlas (PDF).
  • T - Air temperature - temperature measured at a height of 2 m above the ground.
  • Td - Dew point temperature - the temperature is lowered to that contained in the air, the water vapor reaches saturation.
  • f - Relative humidity measured at a height of 2 m above the ground.
  • Te - Effective temperature is the temperature that a seasonally dressed person feels in the shade. Characteristic of stuffy weather. The calculation takes into account the influence of air humidity and wind speed on a person’s heat.
  • Tes - Effective sun temperature - the temperature that a person feels, adjusted for solar heating. Characteristics of the sultry weather. Depends on the height of the sun above the horizon, cloud cover and wind speed. At night, in cloudy weather, as well as in winds of 12 m/s or more, the correction is zero.
  • P - Atmospheric pressure - atmospheric pressure reduced to sea level.
  • Po - Atmospheric pressure - atmospheric pressure measured at the station level.
  • Tmin - Minimum temperature - minimum air temperature at a height of 2 m above the ground.
  • Tmax - Maximum temperature - maximum air temperature at a height of 2 m above the ground.
  • R - Precipitation - The amount of precipitation over a period of time, mm. When you hover over the number, the time period for which the specified amount of precipitation has fallen.
  • R24 - Количество осадков - The amount of precipitation in 24 hours, mm.
  • S - Snow cover - The height of the snow cover. When you hover the mouse over the number - the state of the snow cover and the degree of coverage in points.